カタログに戻る

CZ-6A DEB

運用中PO
NORAD 64628·DEBRIS·🇨🇳 China

打ち上げ Aug 6, 2024 から Taiyuan Satellite Launch Center

Loading…

次のパス (今後24時間)

TLE

最新Source: Space-Track

元期: Sep 12, 2026, 10:59 UTC

1 64628U 24140ADS 26255.45809308  .00235853  00000-0  30173-2 0  9996
2 64628  89.0077 257.2801 0036476 116.1425 244.3601 15.57669805109013

AllMySatでCZ-6A DEBをリアルタイム追跡

Download on the App Store